Location: Ebersheim
(48.3033°N, 7.4991°E)
Time: 18:22:01
(UTC+00:00)

STARLINK-1065 - Pass Details

Date: 27 February 2020
Orbit: 547 x 551 km, 53.0° (Epoch: 28 March)

Event Time Altitude Azimuth Distance (km) Brightness Sun altitude
Rises 19:39:22 0° 259° (W) 2,711 8.1 -25.4°
Reaches altitude 10° 19:41:38 10° 264° (W) 1,819 7.1 -25.7°
Enters shadow 19:45:06 50° 307° (NW) 701 4.4 -26.3°
